Wetterdaten: Freitag, 09.10.2015
Datum Zeit Auen-Temp. Temp gefhlt Luftfeuchte Luftdruck Regen Wind Richtung Richtung Taupunkt Windben
09.10.2015 00:00 9,4 C 9,4 C 86 % 1019,8 hPa 0,0 mm 0,0 km/h (0 Bft) O-SO 112 7,2 C 0,0 km/h (0 Bft)
09.10.2015 00:05 9,4 C 9,4 C 86 % 1019,8 hPa 0,0 mm 0,0 km/h (0 Bft) O-NO 67 7,2 C 0,0 km/h (0 Bft)
09.10.2015 00:10 9,4 C 9,3 C 89 % 1019,6 hPa 0,0 mm 0,0 km/h (0 Bft) O-NO 67 7,7 C 0,0 km/h (0 Bft)
09.10.2015 00:15 9,4 C 9,3 C 89 % 1019,6 hPa 0,0 mm 0,0 km/h (0 Bft) O-NO 67 7,7 C 0,0 km/h (0 Bft)
09.10.2015 00:20 9,4 C 9,3 C 89 % 1019,6 hPa 0,0 mm 0,0 km/h (0 Bft) SO 135 7,7 C 0,0 km/h (0 Bft)
09.10.2015 00:25 9,3 C 9,3 C 86 % 1019,6 hPa 0,0 mm 0,0 km/h (0 Bft) SO 135 7,1 C 0,0 km/h (0 Bft)
09.10.2015 00:30 9,3 C 9,2 C 86 % 1019,6 hPa 0,0 mm 0,0 km/h (0 Bft) SO 135 7,1 C 0,0 km/h (0 Bft)
09.10.2015 00:35 9,2 C 9,1 C 89 % 1019,6 hPa 0,0 mm 0,0 km/h (0 Bft) SO 135 7,5 C 0,0 km/h (0 Bft)
09.10.2015 00:40 9,2 C 9,0 C 89 % 1019,6 hPa 0,0 mm 0,0 km/h (0 Bft) SO 135 7,5 C 0,0 km/h (0 Bft)
09.10.2015 00:45 8,9 C 8,8 C 89 % 1019,6 hPa 0,0 mm 0,0 km/h (0 Bft) O-NO 67 7,2 C 0,0 km/h (0 Bft)
09.10.2015 00:50 8,8 C 8,7 C 89 % 1019,3 hPa 0,0 mm 0,0 km/h (0 Bft) O-NO 67 7,1 C 0,0 km/h (0 Bft)
09.10.2015 00:55 8,8 C 8,7 C 89 % 1019,3 hPa 0,0 mm 0,0 km/h (0 Bft) O-SO 112 7,1 C 0,0 km/h (0 Bft)
09.10.2015 01:00 8,8 C 8,7 C 89 % 1019,3 hPa 0,0 mm 0,0 km/h (0 Bft) O-SO 112 7,1 C 0,0 km/h (0 Bft)
09.10.2015 01:05 8,9 C 8,7 C 89 % 1019,3 hPa 0,0 mm 0,0 km/h (0 Bft) O-NO 67 7,2 C 0,0 km/h (0 Bft)
09.10.2015 01:10 8,9 C 8,8 C 89 % 1019,1 hPa 0,0 mm 0,0 km/h (0 Bft) O-NO 67 7,2 C 0,0 km/h (0 Bft)
09.10.2015 01:15 8,8 C 8,7 C 89 % 1019,1 hPa 0,0 mm 0,0 km/h (0 Bft) S-SO 157 7,1 C 0,0 km/h (0 Bft)
09.10.2015 01:20 8,9 C 8,8 C 89 % 1019,1 hPa 0,0 mm 0,0 km/h (0 Bft) S-SO 157 7,2 C 0,0 km/h (0 Bft)
09.10.2015 01:25 8,9 C 8,8 C 89 % 1019,1 hPa 0,0 mm 0,0 km/h (0 Bft) S-SO 157 7,2 C 0,0 km/h (0 Bft)
09.10.2015 01:30 8,9 C 8,8 C 89 % 1019,2 hPa 0,0 mm 0,0 km/h (0 Bft) S-SO 157 7,2 C 0,0 km/h (0 Bft)
09.10.2015 01:35 8,9 C 8,8 C 89 % 1019,2 hPa 0,0 mm 0,0 km/h (0 Bft) S-SO 157 7,2 C 0,0 km/h (0 Bft)
09.10.2015 01:40 8,9 C 8,8 C 89 % 1019,2 hPa 0,0 mm 0,0 km/h (0 Bft) S 180 7,2 C 0,0 km/h (0 Bft)
09.10.2015 01:45 8,9 C 8,9 C 87 % 1019,2 hPa 0,0 mm 0,0 km/h (0 Bft) S 180 6,9 C 0,0 km/h (0 Bft)
09.10.2015 01:50 8,9 C 8,8 C 90 % 1019,3 hPa 0,0 mm 0,0 km/h (0 Bft) S 180 7,4 C 0,0 km/h (0 Bft)
09.10.2015 01:55 8,9 C 8,8 C 90 % 1019,3 hPa 0,0 mm 0,0 km/h (0 Bft) S 180 7,4 C 0,0 km/h (0 Bft)
09.10.2015 02:00 8,9 C 8,8 C 90 % 1019,3 hPa 0,0 mm 0,0 km/h (0 Bft) S 180 7,4 C 0,0 km/h (0 Bft)
09.10.2015 02:05 8,9 C 8,9 C 87 % 1019,3 hPa 0,0 mm 0,0 km/h (0 Bft) S 180 6,9 C 0,0 km/h (0 Bft)
09.10.2015 02:10 8,9 C 8,9 C 87 % 1019,0 hPa 0,0 mm 0,0 km/h (0 Bft) S 180 6,9 C 0,0 km/h (0 Bft)
09.10.2015 02:15 8,9 C 8,9 C 87 % 1019,0 hPa 0,0 mm 0,0 km/h (0 Bft) S-SO 157 6,9 C 0,0 km/h (0 Bft)
09.10.2015 02:20 8,9 C 8,9 C 87 % 1019,0 hPa 0,0 mm 0,0 km/h (0 Bft) S 180 6,9 C 0,0 km/h (0 Bft)
09.10.2015 02:25 9,0 C 8,9 C 89 % 1019,0 hPa 0,0 mm 0,0 km/h (0 Bft) S-SO 157 7,3 C 0,0 km/h (0 Bft)
09.10.2015 02:30 9,0 C 8,9 C 89 % 1019,1 hPa 0,0 mm 0,0 km/h (0 Bft) S-SO 157 7,3 C 0,0 km/h (0 Bft)
09.10.2015 02:35 9,0 C 8,9 C 90 % 1019,1 hPa 0,0 mm 0,0 km/h (0 Bft) O 90 7,4 C 0,0 km/h (0 Bft)
09.10.2015 02:39 9,0 C 8,9 C 90 % 1019,1 hPa 0,0 mm 0,0 km/h (0 Bft) O 90 7,4 C 0,0 km/h (0 Bft)
09.10.2015 02:40 9,0 C 8,9 C 90 % 1019,1 hPa 0,0 mm 0,0 km/h (0 Bft) O 90 7,4 C 0,0 km/h (0 Bft)
09.10.2015 02:45 9,0 C 8,9 C 90 % 1019,1 hPa 0,0 mm 0,0 km/h (0 Bft) O 90 7,4 C 0,0 km/h (0 Bft)
09.10.2015 02:50 9,0 C 8,9 C 90 % 1019,0 hPa 0,0 mm 0,0 km/h (0 Bft) O 90 7,4 C 0,0 km/h (0 Bft)
09.10.2015 02:55 9,0 C 8,9 C 90 % 1019,0 hPa 0,0 mm 0,0 km/h (0 Bft) O 90 7,4 C 0,0 km/h (0 Bft)
09.10.2015 03:00 9,0 C 8,9 C 90 % 1019,0 hPa 0,0 mm 0,0 km/h (0 Bft) NW 315 7,4 C 0,0 km/h (0 Bft)
09.10.2015 03:05 9,0 C 8,9 C 90 % 1019,0 hPa 0,0 mm 0,0 km/h (0 Bft) NW 315 7,4 C 0,0 km/h (0 Bft)
09.10.2015 03:10 8,9 C 8,8 C 90 % 1018,6 hPa 0,0 mm 0,0 km/h (0 Bft) NW 315 7,4 C 0,0 km/h (0 Bft)
09.10.2015 03:15 8,9 C 8,8 C 90 % 1018,6 hPa 0,0 mm 0,0 km/h (0 Bft) NW 315 7,4 C 0,0 km/h (0 Bft)
09.10.2015 03:20 8,9 C 8,8 C 90 % 1018,6 hPa 0,0 mm 0,0 km/h (0 Bft) NW 315 7,4 C 0,0 km/h (0 Bft)
09.10.2015 03:25 8,9 C 8,8 C 90 % 1018,6 hPa 0,0 mm 0,0 km/h (0 Bft) NW 315 7,4 C 0,0 km/h (0 Bft)
09.10.2015 03:30 8,9 C 8,8 C 90 % 1018,4 hPa 0,0 mm 0,0 km/h (0 Bft) NW 315 7,4 C 0,0 km/h (0 Bft)
09.10.2015 03:35 8,9 C 8,8 C 90 % 1018,4 hPa 0,0 mm 0,0 km/h (0 Bft) NW 315 7,4 C 0,0 km/h (0 Bft)
09.10.2015 03:40 8,9 C 8,8 C 90 % 1018,4 hPa 0,0 mm 0,0 km/h (0 Bft) NO 45 7,4 C 0,0 km/h (0 Bft)
09.10.2015 03:45 8,9 C 8,8 C 90 % 1018,4 hPa 0,0 mm 0,0 km/h (0 Bft) N-NO 22 7,4 C 0,0 km/h (0 Bft)
09.10.2015 03:50 8,9 C 8,8 C 90 % 1018,4 hPa 0,0 mm 0,0 km/h (0 Bft) N-NO 22 7,4 C 0,0 km/h (0 Bft)
09.10.2015 03:55 8,8 C 8,8 C 88 % 1018,4 hPa 0,0 mm 0,0 km/h (0 Bft) N-NO 22 6,9 C 0,0 km/h (0 Bft)
09.10.2015 04:00 8,8 C 8,8 C 88 % 1018,4 hPa 0,0 mm 0,0 km/h (0 Bft) NO 45 6,9 C 0,0 km/h (0 Bft)
09.10.2015 04:05 8,8 C 8,8 C 88 % 1018,4 hPa 0,0 mm 0,0 km/h (0 Bft) O-NO 67 6,9 C 0,0 km/h (0 Bft)
09.10.2015 04:10 8,8 C 8,8 C 88 % 1018,4 hPa 0,0 mm 0,0 km/h (0 Bft) SO 135 6,9 C 0,0 km/h (0 Bft)
09.10.2015 04:15 8,9 C 8,8 C 90 % 1018,4 hPa 0,0 mm 0,3 km/h (0 Bft) S 180 7,4 C 0,0 km/h (0 Bft)
09.10.2015 04:20 8,8 C 8,8 C 88 % 1018,4 hPa 0,0 mm 0,0 km/h (0 Bft) O 90 6,9 C 0,0 km/h (0 Bft)
09.10.2015 04:25 8,7 C 8,6 C 90 % 1018,4 hPa 0,0 mm 0,0 km/h (0 Bft) NO 45 7,2 C 0,0 km/h (0 Bft)
09.10.2015 04:30 8,7 C 8,6 C 90 % 1018,2 hPa 0,0 mm 0,3 km/h (0 Bft) SO 135 7,2 C 0,0 km/h (0 Bft)
09.10.2015 04:35 8,6 C 8,5 C 90 % 1018,2 hPa 0,0 mm 0,3 km/h (0 Bft) O 90 7,1 C 0,0 km/h (0 Bft)
09.10.2015 04:40 8,5 C 8,4 C 90 % 1018,2 hPa 0,0 mm 0,5 km/h (0 Bft) O-SO 112 7,0 C 2,8 km/h (1 Bft)
09.10.2015 04:45 8,3 C 8,2 C 90 % 1018,2 hPa 0,0 mm 0,3 km/h (0 Bft) SO 135 6,8 C 0,0 km/h (0 Bft)
09.10.2015 04:50 8,2 C 8,1 C 90 % 1018,2 hPa 0,0 mm 0,3 km/h (0 Bft) S 180 6,7 C 0,0 km/h (0 Bft)
09.10.2015 04:55 8,2 C 8,0 C 90 % 1018,2 hPa 0,0 mm 0,3 km/h (0 Bft) S-SW 202 6,7 C 0,0 km/h (0 Bft)
09.10.2015 05:00 8,1 C 7,9 C 90 % 1018,2 hPa 0,0 mm 0,3 km/h (0 Bft) S 180 6,6 C 0,0 km/h (0 Bft)
09.10.2015 05:05 7,9 C 7,7 C 90 % 1018,2 hPa 0,0 mm 0,0 km/h (0 Bft) S-SO 157 6,4 C 0,0 km/h (0 Bft)
09.10.2015 05:10 7,9 C 7,7 C 90 % 1018,1 hPa 0,0 mm 0,0 km/h (0 Bft) SO 135 6,4 C 0,0 km/h (0 Bft)
09.10.2015 05:15 7,6 C 7,4 C 90 % 1018,1 hPa 0,0 mm 0,0 km/h (0 Bft) S 180 6,1 C 0,0 km/h (0 Bft)
09.10.2015 05:20 7,5 C 7,3 C 90 % 1018,1 hPa 0,0 mm 0,0 km/h (0 Bft) S-SO 157 6,0 C 0,0 km/h (0 Bft)
09.10.2015 05:25 7,7 C 7,6 C 88 % 1018,1 hPa 0,0 mm 0,0 km/h (0 Bft) S-SO 157 5,8 C 0,0 km/h (0 Bft)
09.10.2015 05:30 7,8 C 7,8 C 88 % 1018,3 hPa 0,0 mm 0,0 km/h (0 Bft) O-NO 67 5,9 C 0,0 km/h (0 Bft)
09.10.2015 05:35 8,1 C 8,1 C 87 % 1018,3 hPa 0,0 mm 0,3 km/h (0 Bft) N-NO 22 6,1 C 0,0 km/h (0 Bft)
09.10.2015 05:40 8,2 C 8,2 C 88 % 1018,3 hPa 0,0 mm 0,5 km/h (0 Bft) O 90 6,3 C 6,7 km/h (2 Bft)
09.10.2015 05:45 8,3 C 8,3 C 88 % 1018,3 hPa 0,0 mm 0,3 km/h (0 Bft) N-NO 22 6,4 C 0,0 km/h (0 Bft)
09.10.2015 05:50 8,4 C 8,3 C 91 % 1018,2 hPa 0,0 mm 0,3 km/h (0 Bft) O-NO 67 7,0 C 0,0 km/h (0 Bft)
09.10.2015 05:55 8,4 C 8,4 C 91 % 1018,2 hPa 0,0 mm 0,0 km/h (0 Bft) N-NO 22 7,0 C 2,8 km/h (1 Bft)
09.10.2015 06:00 8,5 C 8,5 C 91 % 1018,2 hPa 0,0 mm 0,3 km/h (0 Bft) N-NO 22 7,1 C 0,0 km/h (0 Bft)
09.10.2015 06:05 8,5 C 8,5 C 91 % 1018,2 hPa 0,0 mm 1,8 km/h (1 Bft) N-NO 22 7,1 C 0,0 km/h (0 Bft)
09.10.2015 06:10 8,5 C 8,5 C 91 % 1018,1 hPa 0,0 mm 2,1 km/h (1 Bft) O-NO 67 7,1 C 7,8 km/h (2 Bft)
09.10.2015 06:15 8,5 C 8,5 C 91 % 1018,1 hPa 0,0 mm 2,1 km/h (1 Bft) N-NO 22 7,1 C 2,8 km/h (1 Bft)
09.10.2015 06:20 8,5 C 8,5 C 91 % 1018,1 hPa 0,0 mm 2,8 km/h (1 Bft) O 90 7,1 C 7,8 km/h (2 Bft)
09.10.2015 06:25 8,5 C 8,5 C 91 % 1018,1 hPa 0,0 mm 2,8 km/h (1 Bft) O-NO 67 7,1 C 4,1 km/h (1 Bft)
09.10.2015 06:30 8,5 C 8,5 C 91 % 1018,1 hPa 0,0 mm 2,6 km/h (1 Bft) N-NW 337 7,1 C 0,0 km/h (0 Bft)
09.10.2015 06:35 8,4 C 8,4 C 91 % 1018,1 hPa 0,0 mm 1,8 km/h (1 Bft) NO 45 7,0 C 0,0 km/h (0 Bft)
09.10.2015 06:40 8,4 C 8,4 C 91 % 1018,1 hPa 0,0 mm 1,3 km/h (1 Bft) O-NO 67 7,0 C 0,0 km/h (0 Bft)
09.10.2015 06:45 8,4 C 8,4 C 91 % 1018,1 hPa 0,0 mm 1,0 km/h (0 Bft) N-NO 22 7,0 C 5,2 km/h (1 Bft)
09.10.2015 06:50 8,3 C 8,3 C 91 % 1018,1 hPa 0,0 mm 1,0 km/h (0 Bft) O-NO 67 6,9 C 0,0 km/h (0 Bft)
09.10.2015 06:55 8,3 C 8,3 C 88 % 1018,1 hPa 0,0 mm 0,5 km/h (0 Bft) O-SO 112 6,4 C 0,0 km/h (0 Bft)
09.10.2015 07:00 8,3 C 8,3 C 88 % 1018,1 hPa 0,0 mm 0,0 km/h (0 Bft) NO 45 6,4 C 0,0 km/h (0 Bft)
09.10.2015 07:05 8,3 C 8,3 C 91 % 1018,1 hPa 0,0 mm 0,3 km/h (0 Bft) SO 135 6,9 C 0,0 km/h (0 Bft)
09.10.2015 07:10 8,3 C 8,3 C 91 % 1018,1 hPa 0,0 mm 0,5 km/h (0 Bft) O-SO 112 6,9 C 0,0 km/h (0 Bft)
09.10.2015 07:15 8,2 C 8,2 C 91 % 1018,1 hPa 0,0 mm 1,0 km/h (0 Bft) SO 135 6,8 C 0,0 km/h (0 Bft)
09.10.2015 07:20 8,2 C 8,2 C 88 % 1018,1 hPa 0,0 mm 1,0 km/h (0 Bft) NO 45 6,3 C 0,0 km/h (0 Bft)
09.10.2015 07:25 8,2 C 8,2 C 92 % 1018,1 hPa 0,0 mm 1,0 km/h (0 Bft) O 90 7,0 C 4,4 km/h (1 Bft)
09.10.2015 07:30 8,2 C 8,2 C 92 % 1018,1 hPa 0,0 mm 1,0 km/h (0 Bft) O-NO 67 7,0 C 0,0 km/h (0 Bft)
09.10.2015 07:35 8,1 C 8,2 C 88 % 1018,1 hPa 0,0 mm 1,3 km/h (1 Bft) N-NO 22 6,2 C 0,0 km/h (0 Bft)
09.10.2015 07:40 8,1 C 8,2 C 88 % 1018,1 hPa 0,0 mm 0,8 km/h (0 Bft) O-NO 67 6,2 C 0,0 km/h (0 Bft)
09.10.2015 07:45 8,2 C 8,2 C 88 % 1018,1 hPa 0,0 mm 0,0 km/h (0 Bft) N-NO 22 6,3 C 0,0 km/h (0 Bft)
09.10.2015 07:50 8,2 C 8,2 C 88 % 1018,2 hPa 0,0 mm 0,0 km/h (0 Bft) N-NO 22 6,3 C 2,6 km/h (1 Bft)
09.10.2015 07:55 8,2 C 8,3 C 88 % 1018,2 hPa 0,0 mm 1,3 km/h (1 Bft) NO 45 6,3 C 0,0 km/h (0 Bft)
09.10.2015 08:00 8,2 C 8,3 C 88 % 1018,2 hPa 0,0 mm 1,3 km/h (1 Bft) O-NO 67 6,3 C 0,0 km/h (0 Bft)
09.10.2015 08:05 8,3 C 8,4 C 88 % 1018,2 hPa 0,0 mm 0,3 km/h (0 Bft) O-SO 112 6,4 C 0,0 km/h (0 Bft)
09.10.2015 08:10 8,3 C 8,4 C 88 % 1018,2 hPa 0,0 mm 0,3 km/h (0 Bft) O-NO 67 6,4 C 0,0 km/h (0 Bft)
09.10.2015 08:15 8,2 C 8,3 C 88 % 1018,2 hPa 0,0 mm 0,5 km/h (0 Bft) O-SO 112 6,3 C 0,0 km/h (0 Bft)
09.10.2015 08:20 8,2 C 8,4 C 88 % 1018,2 hPa 0,0 mm 0,8 km/h (0 Bft) NO 45 6,3 C 3,1 km/h (1 Bft)
09.10.2015 08:25 8,2 C 8,5 C 88 % 1018,2 hPa 0,0 mm 0,8 km/h (0 Bft) O-NO 67 6,3 C 3,1 km/h (1 Bft)
09.10.2015 08:30 8,2 C 8,5 C 88 % 1018,4 hPa 0,0 mm 1,0 km/h (0 Bft) S-SO 157 6,3 C 3,1 km/h (1 Bft)
09.10.2015 08:35 8,2 C 8,5 C 88 % 1018,4 hPa 0,0 mm 0,5 km/h (0 Bft) O-NO 67 6,3 C 0,0 km/h (0 Bft)
09.10.2015 08:40 8,3 C 8,6 C 88 % 1018,4 hPa 0,0 mm 0,8 km/h (0 Bft) NO 45 6,4 C 0,0 km/h (0 Bft)
09.10.2015 08:45 8,4 C 8,9 C 88 % 1018,4 hPa 0,0 mm 0,5 km/h (0 Bft) N-NO 22 6,5 C 0,0 km/h (0 Bft)
09.10.2015 08:50 8,5 C 9,2 C 88 % 1018,4 hPa 0,0 mm 0,0 km/h (0 Bft) N-NO 22 6,6 C 2,6 km/h (1 Bft)
09.10.2015 08:55 8,5 C 9,5 C 88 % 1018,4 hPa 0,0 mm 0,8 km/h (0 Bft) N-NO 22 6,6 C 3,1 km/h (1 Bft)
09.10.2015 09:00 8,6 C 9,5 C 89 % 1018,4 hPa 0,0 mm 0,8 km/h (0 Bft) O-NO 67 6,9 C 0,0 km/h (0 Bft)
09.10.2015 09:05 8,6 C 9,7 C 89 % 1018,4 hPa 0,0 mm 1,0 km/h (0 Bft) NO 45 6,9 C 0,0 km/h (0 Bft)
09.10.2015 09:10 8,7 C 9,9 C 89 % 1018,5 hPa 0,0 mm 0,8 km/h (0 Bft) N-NO 22 7,0 C 3,1 km/h (1 Bft)
09.10.2015 09:15 8,7 C 10,1 C 89 % 1018,5 hPa 0,0 mm 0,8 km/h (0 Bft) O-NO 67 7,0 C 0,0 km/h (0 Bft)
09.10.2015 09:20 8,9 C 10,2 C 88 % 1018,5 hPa 0,0 mm 1,6 km/h (1 Bft) N-NO 22 7,0 C 3,9 km/h (1 Bft)
09.10.2015 09:25 8,9 C 10,3 C 88 % 1018,5 hPa 0,0 mm 1,8 km/h (1 Bft) N-NO 22 7,0 C 0,0 km/h (0 Bft)
09.10.2015 09:30 8,9 C 10,3 C 88 % 1018,8 hPa 0,0 mm 2,1 km/h (1 Bft) O 90 7,0 C 4,1 km/h (1 Bft)
09.10.2015 09:35 8,9 C 10,2 C 88 % 1018,8 hPa 0,0 mm 1,6 km/h (1 Bft) N-NO 22 7,0 C 2,6 km/h (1 Bft)
09.10.2015 09:40 9,0 C 10,2 C 88 % 1018,8 hPa 0,0 mm 1,3 km/h (1 Bft) N-NW 337 7,1 C 0,0 km/h (0 Bft)
09.10.2015 09:45 9,1 C 10,4 C 88 % 1018,8 hPa 0,0 mm 1,3 km/h (1 Bft) N-NW 337 7,2 C 0,0 km/h (0 Bft)
09.10.2015 09:50 9,1 C 10,5 C 88 % 1018,8 hPa 0,0 mm 1,3 km/h (1 Bft) O-NO 67 7,2 C 2,8 km/h (1 Bft)
09.10.2015 09:55 9,2 C 10,5 C 88 % 1018,8 hPa 0,0 mm 1,8 km/h (1 Bft) O-NO 67 7,3 C 0,0 km/h (0 Bft)
09.10.2015 10:00 9,3 C 10,7 C 88 % 1018,8 hPa 0,0 mm 1,8 km/h (1 Bft) N-NO 22 7,4 C 0,0 km/h (0 Bft)
09.10.2015 10:05 9,5 C 11,1 C 88 % 1018,8 hPa 0,0 mm 1,0 km/h (0 Bft) N-NW 337 7,6 C 3,6 km/h (1 Bft)
09.10.2015 10:10 9,6 C 11,2 C 88 % 1018,8 hPa 0,0 mm 0,5 km/h (0 Bft) N-NO 22 7,7 C 0,0 km/h (0 Bft)
09.10.2015 10:15 9,8 C 11,7 C 88 % 1018,8 hPa 0,0 mm 0,3 km/h (0 Bft) S-SW 202 7,9 C 0,0 km/h (0 Bft)
09.10.2015 10:20 9,9 C 12,0 C 88 % 1018,8 hPa 0,0 mm 1,3 km/h (1 Bft) NO 45 8,0 C 2,6 km/h (1 Bft)
09.10.2015 10:25 10,1 C 12,4 C 87 % 1018,8 hPa 0,0 mm 2,6 km/h (1 Bft) O-NO 67 8,0 C 3,4 km/h (1 Bft)
09.10.2015 10:30 10,2 C 12,8 C 87 % 1018,6 hPa 0,0 mm 2,1 km/h (1 Bft) N-NO 22 8,1 C 8,0 km/h (2 Bft)
09.10.2015 10:35 10,5 C 13,5 C 87 % 1018,6 hPa 0,0 mm 2,1 km/h (1 Bft) N-NO 22 8,4 C 0,0 km/h (0 Bft)
09.10.2015 10:40 10,5 C 13,6 C 87 % 1018,6 hPa 0,0 mm 2,6 km/h (1 Bft) O-NO 67 8,4 C 0,0 km/h (0 Bft)
09.10.2015 10:45 10,7 C 14,4 C 87 % 1018,6 hPa 0,0 mm 3,1 km/h (1 Bft) O-SO 112 8,6 C 6,2 km/h (2 Bft)
09.10.2015 10:50 10,7 C 14,5 C 86 % 1018,7 hPa 0,0 mm 3,9 km/h (1 Bft) O-NO 67 8,5 C 7,0 km/h (2 Bft)
09.10.2015 10:55 10,8 C 13,9 C 86 % 1018,7 hPa 0,0 mm 4,9 km/h (1 Bft) NO 45 8,6 C 7,3 km/h (2 Bft)
09.10.2015 11:00 10,7 C 13,6 C 86 % 1018,7 hPa 0,0 mm 3,9 km/h (1 Bft) O-SO 112 8,5 C 10,6 km/h (2 Bft)
09.10.2015 11:05 10,7 C 13,5 C 85 % 1018,7 hPa 0,0 mm 3,1 km/h (1 Bft) N 360 8,3 C 3,9 km/h (1 Bft)
09.10.2015 11:10 10,7 C 13,5 C 85 % 1018,9 hPa 0,0 mm 2,6 km/h (1 Bft) N-NO 22 8,3 C 0,0 km/h (0 Bft)
09.10.2015 11:15 10,6 C 13,2 C 85 % 1018,9 hPa 0,0 mm 3,6 km/h (1 Bft) NO 45 8,2 C 4,7 km/h (1 Bft)
09.10.2015 11:20 10,5 C 13,2 C 85 % 1018,9 hPa 0,0 mm 3,6 km/h (1 Bft) O-NO 67 8,1 C 10,9 km/h (2 Bft)
09.10.2015 11:25 10,8 C 13,5 C 85 % 1018,9 hPa 0,0 mm 3,6 km/h (1 Bft) O-NO 67 8,4 C 6,5 km/h (2 Bft)
09.10.2015 11:30 10,6 C 13,3 C 84 % 1019,0 hPa 0,0 mm 3,1 km/h (1 Bft) NO 45 8,0 C 4,7 km/h (1 Bft)
09.10.2015 11:35 10,2 C 12,6 C 84 % 1019,0 hPa 0,0 mm 4,1 km/h (1 Bft) N-NO 22 7,6 C 7,5 km/h (2 Bft)
09.10.2015 11:40 10,1 C 12,3 C 84 % 1019,0 hPa 0,0 mm 4,1 km/h (1 Bft) N 360 7,5 C 3,4 km/h (1 Bft)
09.10.2015 11:45 10,1 C 11,9 C 84 % 1019,0 hPa 0,0 mm 3,4 km/h (1 Bft) W-NW 292 7,5 C 4,7 km/h (1 Bft)
09.10.2015 11:50 10,2 C 12,2 C 84 % 1019,0 hPa 0,0 mm 2,6 km/h (1 Bft) N 360 7,6 C 4,9 km/h (1 Bft)
09.10.2015 11:55 10,3 C 12,3 C 84 % 1019,0 hPa 0,0 mm 3,4 km/h (1 Bft) O-NO 67 7,7 C 4,4 km/h (1 Bft)
09.10.2015 12:00 10,2 C 12,3 C 84 % 1019,0 hPa 0,0 mm 3,9 km/h (1 Bft) NO 45 7,6 C 7,0 km/h (2 Bft)
09.10.2015 12:05 10,0 C 12,0 C 84 % 1019,0 hPa 0,0 mm 4,1 km/h (1 Bft) O-NO 67 7,4 C 3,6 km/h (1 Bft)
09.10.2015 12:10 10,0 C 11,9 C 84 % 1018,9 hPa 0,0 mm 4,9 km/h (1 Bft) O-NO 67 7,4 C 7,0 km/h (2 Bft)
09.10.2015 12:15 10,1 C 12,0 C 84 % 1018,9 hPa 0,0 mm 4,9 km/h (1 Bft) N-NO 22 7,5 C 8,5 km/h (2 Bft)
09.10.2015 12:20 10,1 C 12,1 C 84 % 1018,9 hPa 0,0 mm 4,7 km/h (1 Bft) N-NO 22 7,5 C 4,7 km/h (1 Bft)
09.10.2015 12:25 10,4 C 12,8 C 84 % 1018,9 hPa 0,0 mm 3,4 km/h (1 Bft) N-NO 22 7,8 C 3,4 km/h (1 Bft)
09.10.2015 12:30 10,4 C 13,0 C 84 % 1018,7 hPa 0,0 mm 2,3 km/h (1 Bft) O 90 7,8 C 11,4 km/h (2 Bft)
09.10.2015 12:35 10,4 C 13,2 C 83 % 1018,7 hPa 0,0 mm 2,3 km/h (1 Bft) S-SO 157 7,6 C 2,6 km/h (1 Bft)
09.10.2015 12:40 10,5 C 13,2 C 83 % 1018,7 hPa 0,0 mm 2,3 km/h (1 Bft) O 90 7,7 C 4,7 km/h (1 Bft)
09.10.2015 12:45 11,1 C 14,3 C 83 % 1018,7 hPa 0,0 mm 3,4 km/h (1 Bft) NO 45 8,3 C 12,2 km/h (2 Bft)
09.10.2015 12:50 11,1 C 14,4 C 83 % 1018,8 hPa 0,0 mm 3,6 km/h (1 Bft) NO 45 8,3 C 13,5 km/h (3 Bft)
09.10.2015 12:55 11,3 C 15,0 C 83 % 1018,8 hPa 0,0 mm 3,4 km/h (1 Bft) S-SO 157 8,5 C 4,9 km/h (1 Bft)
09.10.2015 13:00 11,8 C 16,0 C 82 % 1018,8 hPa 0,0 mm 2,3 km/h (1 Bft) O-SO 112 8,8 C 3,1 km/h (1 Bft)
09.10.2015 13:05 11,7 C 16,2 C 81 % 1018,8 hPa 0,0 mm 2,1 km/h (1 Bft) SO 135 8,5 C 6,0 km/h (2 Bft)
09.10.2015 13:10 11,6 C 16,0 C 81 % 1018,8 hPa 0,0 mm 2,8 km/h (1 Bft) O-SO 112 8,5 C 5,7 km/h (1 Bft)
09.10.2015 13:15 11,5 C 15,3 C 80 % 1018,8 hPa 0,0 mm 5,2 km/h (1 Bft) O-NO 67 8,2 C 8,5 km/h (2 Bft)
09.10.2015 13:20 11,5 C 14,9 C 80 % 1018,8 hPa 0,0 mm 5,4 km/h (1 Bft) O 90 8,2 C 3,6 km/h (1 Bft)
09.10.2015 13:25 11,6 C 14,9 C 80 % 1018,8 hPa 0,0 mm 2,6 km/h (1 Bft) NO 45 8,3 C 2,8 km/h (1 Bft)
09.10.2015 13:30 11,7 C 14,7 C 80 % 1018,8 hPa 0,0 mm 3,1 km/h (1 Bft) NO 45 8,4 C 9,8 km/h (2 Bft)
09.10.2015 13:35 11,9 C 14,4 C 80 % 1018,8 hPa 0,0 mm 5,4 km/h (1 Bft) N-NO 22 8,6 C 10,1 km/h (2 Bft)
09.10.2015 13:40 11,8 C 14,1 C 80 % 1018,8 hPa 0,0 mm 6,0 km/h (2 Bft) NO 45 8,5 C 14,0 km/h (3 Bft)
09.10.2015 13:45 11,9 C 14,0 C 79 % 1018,8 hPa 0,0 mm 5,4 km/h (1 Bft) O-NO 67 8,4 C 3,6 km/h (1 Bft)
09.10.2015 13:50 11,9 C 14,0 C 79 % 1018,6 hPa 0,0 mm 5,7 km/h (1 Bft) O-NO 67 8,4 C 9,8 km/h (2 Bft)
09.10.2015 13:55 12,1 C 14,2 C 79 % 1018,6 hPa 0,0 mm 4,7 km/h (1 Bft) SO 135 8,6 C 2,6 km/h (1 Bft)
09.10.2015 14:00 12,4 C 15,1 C 79 % 1018,6 hPa 0,0 mm 3,9 km/h (1 Bft) NO 45 8,9 C 10,6 km/h (2 Bft)
09.10.2015 14:05 12,5 C 15,4 C 78 % 1018,6 hPa 0,0 mm 4,4 km/h (1 Bft) N-NO 22 8,8 C 5,7 km/h (1 Bft)
09.10.2015 14:10 12,5 C 15,3 C 78 % 1018,4 hPa 0,0 mm 6,5 km/h (2 Bft) O-SO 112 8,8 C 17,6 km/h (3 Bft)
09.10.2015 14:15 12,5 C 14,9 C 78 % 1018,4 hPa 0,0 mm 4,9 km/h (1 Bft) W 270 8,8 C 3,9 km/h (1 Bft)
09.10.2015 14:20 12,5 C 14,8 C 77 % 1018,4 hPa 0,0 mm 5,2 km/h (1 Bft) NO 45 8,6 C 17,6 km/h (3 Bft)
09.10.2015 14:25 12,6 C 14,8 C 77 % 1018,4 hPa 0,0 mm 4,4 km/h (1 Bft) NO 45 8,7 C 4,4 km/h (1 Bft)
09.10.2015 14:30 12,6 C 14,7 C 77 % 1018,4 hPa 0,0 mm 4,9 km/h (1 Bft) O-NO 67 8,7 C 6,2 km/h (2 Bft)
09.10.2015 14:35 12,7 C 14,6 C 77 % 1018,4 hPa 0,0 mm 4,1 km/h (1 Bft) NO 45 8,8 C 8,0 km/h (2 Bft)
09.10.2015 14:40 12,7 C 14,5 C 77 % 1018,4 hPa 0,0 mm 3,9 km/h (1 Bft) N 360 8,8 C 4,4 km/h (1 Bft)
09.10.2015 14:41 12,7 C 14,5 C 77 % 1018,4 hPa 0,0 mm 3,9 km/h (1 Bft) N 360 8,8 C 4,4 km/h (1 Bft)
09.10.2015 14:45 12,6 C 14,2 C 77 % 1018,4 hPa 0,0 mm 6,0 km/h (2 Bft) NO 45 8,7 C 9,8 km/h (2 Bft)
09.10.2015 14:50 12,5 C 14,0 C 77 % 1018,1 hPa 0,0 mm 5,4 km/h (1 Bft) NO 45 8,6 C 4,9 km/h (1 Bft)
09.10.2015 14:55 12,5 C 13,8 C 77 % 1018,1 hPa 0,0 mm 3,9 km/h (1 Bft) N 360 8,6 C 4,7 km/h (1 Bft)
09.10.2015 15:00 12,5 C 13,8 C 77 % 1018,1 hPa 0,0 mm 2,8 km/h (1 Bft) O-NO 67 8,6 C 0,0 km/h (0 Bft)
09.10.2015 15:05 12,6 C 13,9 C 77 % 1018,1 hPa 0,0 mm 3,6 km/h (1 Bft) O-NO 67 8,7 C 5,7 km/h (1 Bft)
09.10.2015 15:10 12,6 C 13,8 C 77 % 1017,9 hPa 0,0 mm 3,9 km/h (1 Bft) NO 45 8,7 C 3,6 km/h (1 Bft)
09.10.2015 15:15 12,6 C 13,8 C 77 % 1017,9 hPa 0,0 mm 3,1 km/h (1 Bft) O-NO 67 8,7 C 8,0 km/h (2 Bft)
09.10.2015 15:20 12,6 C 13,6 C 77 % 1017,9 hPa 0,0 mm 2,3 km/h (1 Bft) NO 45 8,7 C 3,6 km/h (1 Bft)
09.10.2015 15:25 12,5 C 13,4 C 77 % 1017,9 hPa 0,0 mm 3,4 km/h (1 Bft) O-NO 67 8,6 C 11,4 km/h (2 Bft)
09.10.2015 15:30 12,5 C 13,1 C 77 % 1017,9 hPa 0,0 mm 4,1 km/h (1 Bft) N-NW 337 8,6 C 0,0 km/h (0 Bft)
09.10.2015 15:35 12,4 C 12,9 C 78 % 1017,9 hPa 0,0 mm 5,2 km/h (1 Bft) N-NO 22 8,7 C 8,5 km/h (2 Bft)
09.10.2015 15:40 12,3 C 12,7 C 78 % 1017,9 hPa 0,0 mm 4,9 km/h (1 Bft) O-NO 67 8,6 C 4,9 km/h (1 Bft)
09.10.2015 15:45 12,3 C 12,6 C 78 % 1017,9 hPa 0,0 mm 4,4 km/h (1 Bft) NO 45 8,6 C 3,1 km/h (1 Bft)
09.10.2015 15:50 12,2 C 12,6 C 78 % 1017,6 hPa 0,0 mm 3,1 km/h (1 Bft) SW 225 8,5 C 0,0 km/h (0 Bft)
09.10.2015 15:55 12,2 C 12,7 C 78 % 1017,6 hPa 0,0 mm 1,0 km/h (0 Bft) O 90 8,5 C 4,1 km/h (1 Bft)
09.10.2015 16:00 12,2 C 12,7 C 78 % 1017,6 hPa 0,0 mm 0,8 km/h (0 Bft) O-SO 112 8,5 C 3,9 km/h (1 Bft)
09.10.2015 16:05 12,2 C 12,6 C 78 % 1017,6 hPa 0,0 mm 1,8 km/h (1 Bft) NO 45 8,5 C 0,0 km/h (0 Bft)
09.10.2015 16:10 12,2 C 12,6 C 79 % 1017,8 hPa 0,0 mm 1,0 km/h (0 Bft) O-SO 112 8,7 C 0,0 km/h (0 Bft)
09.10.2015 16:15 12,3 C 12,8 C 79 % 1017,8 hPa 0,0 mm 0,0 km/h (0 Bft) W-SW 247 8,8 C 0,0 km/h (0 Bft)
09.10.2015 16:20 12,3 C 12,9 C 79 % 1017,8 hPa 0,0 mm 0,0 km/h (0 Bft) S-SW 202 8,8 C 0,0 km/h (0 Bft)
09.10.2015 16:25 12,3 C 13,1 C 79 % 1017,8 hPa 0,0 mm 0,0 km/h (0 Bft) SO 135 8,8 C 0,0 km/h (0 Bft)
09.10.2015 16:30 12,3 C 13,0 C 79 % 1017,8 hPa 0,0 mm 0,0 km/h (0 Bft) W-NW 292 8,8 C 0,0 km/h (0 Bft)
09.10.2015 16:35 12,4 C 13,2 C 79 % 1017,8 hPa 0,0 mm 0,0 km/h (0 Bft) O-NO 67 8,9 C 0,0 km/h (0 Bft)
09.10.2015 16:40 12,4 C 13,2 C 79 % 1017,8 hPa 0,0 mm 0,0 km/h (0 Bft) O-NO 67 8,9 C 0,0 km/h (0 Bft)
09.10.2015 16:45 12,5 C 13,2 C 79 % 1017,8 hPa 0,0 mm 0,0 km/h (0 Bft) O-SO 112 9,0 C 0,0 km/h (0 Bft)
09.10.2015 16:50 12,4 C 13,1 C 79 % 1017,9 hPa 0,0 mm 0,0 km/h (0 Bft) O-NO 67 8,9 C 0,0 km/h (0 Bft)
09.10.2015 16:55 12,4 C 13,0 C 79 % 1017,9 hPa 0,0 mm 0,0 km/h (0 Bft) O-SO 112 8,9 C 0,0 km/h (0 Bft)
09.10.2015 17:00 12,4 C 13,0 C 79 % 1017,9 hPa 0,0 mm 0,0 km/h (0 Bft) SO 135 8,9 C 0,0 km/h (0 Bft)
09.10.2015 17:05 12,4 C 12,8 C 79 % 1017,9 hPa 0,0 mm 0,3 km/h (0 Bft) NO 45 8,9 C 0,0 km/h (0 Bft)
09.10.2015 17:10 12,4 C 12,8 C 79 % 1017,8 hPa 0,0 mm 0,3 km/h (0 Bft) NW 315 8,9 C 0,0 km/h (0 Bft)
09.10.2015 17:15 12,4 C 12,8 C 79 % 1017,8 hPa 0,0 mm 0,0 km/h (0 Bft) O-SO 112 8,9 C 0,0 km/h (0 Bft)
09.10.2015 17:20 12,4 C 12,8 C 79 % 1017,8 hPa 0,0 mm 0,0 km/h (0 Bft) S-SO 157 8,9 C 0,0 km/h (0 Bft)
09.10.2015 17:25 12,4 C 12,8 C 79 % 1017,8 hPa 0,0 mm 0,0 km/h (0 Bft) S-SO 157 8,9 C 0,0 km/h (0 Bft)
09.10.2015 17:30 12,4 C 12,8 C 79 % 1017,7 hPa 0,0 mm 0,0 km/h (0 Bft) SO 135 8,9 C 0,0 km/h (0 Bft)
09.10.2015 17:35 12,4 C 12,8 C 79 % 1017,7 hPa 0,0 mm 0,0 km/h (0 Bft) SO 135 8,9 C 0,0 km/h (0 Bft)
09.10.2015 17:40 12,3 C 12,8 C 79 % 1017,7 hPa 0,0 mm 0,0 km/h (0 Bft) SO 135 8,8 C 0,0 km/h (0 Bft)
09.10.2015 17:45 12,3 C 12,6 C 79 % 1017,7 hPa 0,0 mm 0,0 km/h (0 Bft) O-NO 67 8,8 C 0,0 km/h (0 Bft)
09.10.2015 17:50 12,2 C 12,6 C 79 % 1017,8 hPa 0,0 mm 0,3 km/h (0 Bft) SO 135 8,7 C 0,0 km/h (0 Bft)
09.10.2015 17:55 12,0 C 12,3 C 79 % 1017,8 hPa 0,0 mm 0,3 km/h (0 Bft) SO 135 8,5 C 0,0 km/h (0 Bft)
09.10.2015 18:00 12,0 C 12,2 C 79 % 1017,8 hPa 0,0 mm 0,0 km/h (0 Bft) O-SO 112 8,5 C 0,0 km/h (0 Bft)
09.10.2015 18:05 11,9 C 12,0 C 79 % 1017,8 hPa 0,0 mm 0,0 km/h (0 Bft) SO 135 8,4 C 0,0 km/h (0 Bft)
09.10.2015 18:10 11,8 C 11,9 C 79 % 1017,9 hPa 0,0 mm 0,0 km/h (0 Bft) O-SO 112 8,3 C 0,0 km/h (0 Bft)
09.10.2015 18:15 11,7 C 11,8 C 79 % 1017,9 hPa 0,0 mm 0,0 km/h (0 Bft) SO 135 8,2 C 0,0 km/h (0 Bft)
09.10.2015 18:20 11,7 C 11,7 C 79 % 1017,9 hPa 0,0 mm 0,0 km/h (0 Bft) S-SO 157 8,2 C 0,0 km/h (0 Bft)
09.10.2015 18:25 11,5 C 11,5 C 79 % 1017,9 hPa 0,0 mm 0,0 km/h (0 Bft) O 90 8,0 C 0,0 km/h (0 Bft)
09.10.2015 18:30 11,4 C 11,4 C 80 % 1017,5 hPa 0,0 mm 0,0 km/h (0 Bft) SO 135 8,1 C 0,0 km/h (0 Bft)
09.10.2015 18:35 11,2 C 11,2 C 80 % 1017,5 hPa 0,0 mm 0,0 km/h (0 Bft) SO 135 7,9 C 0,0 km/h (0 Bft)
09.10.2015 18:40 11,1 C 11,1 C 80 % 1017,5 hPa 0,0 mm 0,0 km/h (0 Bft) S-SO 157 7,8 C 0,0 km/h (0 Bft)
09.10.2015 18:45 11,0 C 10,9 C 81 % 1017,5 hPa 0,0 mm 0,0 km/h (0 Bft) S 180 7,9 C 0,0 km/h (0 Bft)
09.10.2015 18:50 11,0 C 10,9 C 81 % 1017,7 hPa 0,0 mm 0,3 km/h (0 Bft) SO 135 7,9 C 0,0 km/h (0 Bft)
09.10.2015 18:55 10,8 C 10,7 C 81 % 1017,7 hPa 0,0 mm 0,3 km/h (0 Bft) SO 135 7,7 C 0,0 km/h (0 Bft)
09.10.2015 19:00 10,7 C 10,6 C 81 % 1017,7 hPa 0,0 mm 0,0 km/h (0 Bft) S 180 7,6 C 0,0 km/h (0 Bft)
09.10.2015 19:05 10,5 C 10,3 C 82 % 1017,7 hPa 0,0 mm 0,0 km/h (0 Bft) S-SO 157 7,6 C 0,0 km/h (0 Bft)
09.10.2015 19:10 10,5 C 10,3 C 83 % 1017,7 hPa 0,0 mm 0,0 km/h (0 Bft) SO 135 7,7 C 0,0 km/h (0 Bft)
09.10.2015 19:15 10,5 C 10,3 C 83 % 1017,7 hPa 0,0 mm 0,0 km/h (0 Bft) S-SO 157 7,7 C 0,0 km/h (0 Bft)
09.10.2015 19:20 10,5 C 10,3 C 83 % 1017,7 hPa 0,0 mm 0,0 km/h (0 Bft) S 180 7,7 C 0,0 km/h (0 Bft)
09.10.2015 19:25 10,5 C 10,3 C 83 % 1017,7 hPa 0,0 mm 0,0 km/h (0 Bft) S-SO 157 7,7 C 0,0 km/h (0 Bft)
09.10.2015 19:30 10,5 C 10,4 C 83 % 1017,8 hPa 0,0 mm 0,0 km/h (0 Bft) SO 135 7,7 C 0,0 km/h (0 Bft)
09.10.2015 19:35 10,3 C 10,2 C 83 % 1017,8 hPa 0,0 mm 0,0 km/h (0 Bft) S-SO 157 7,5 C 0,0 km/h (0 Bft)
09.10.2015 19:40 10,2 C 10,1 C 83 % 1017,8 hPa 0,0 mm 0,0 km/h (0 Bft) SW 225 7,4 C 0,0 km/h (0 Bft)
09.10.2015 19:45 10,1 C 10,0 C 83 % 1017,8 hPa 0,0 mm 0,0 km/h (0 Bft) SW 225 7,3 C 0,0 km/h (0 Bft)
09.10.2015 19:50 10,1 C 10,0 C 84 % 1017,9 hPa 0,0 mm 0,0 km/h (0 Bft) SW 225 7,5 C 0,0 km/h (0 Bft)
09.10.2015 19:55 10,1 C 10,1 C 83 % 1017,9 hPa 0,0 mm 0,0 km/h (0 Bft) S-SO 157 7,3 C 0,0 km/h (0 Bft)
09.10.2015 20:00 10,1 C 10,0 C 84 % 1017,9 hPa 0,0 mm 0,0 km/h (0 Bft) S 180 7,5 C 0,0 km/h (0 Bft)
09.10.2015 20:05 10,0 C 9,9 C 84 % 1017,9 hPa 0,0 mm 0,0 km/h (0 Bft) S-SW 202 7,4 C 0,0 km/h (0 Bft)
09.10.2015 20:10 10,0 C 9,9 C 84 % 1017,9 hPa 0,0 mm 0,0 km/h (0 Bft) S 180 7,4 C 0,0 km/h (0 Bft)
09.10.2015 20:15 10,0 C 10,0 C 83 % 1017,9 hPa 0,0 mm 0,0 km/h (0 Bft) S 180 7,2 C 0,0 km/h (0 Bft)
09.10.2015 20:20 10,0 C 10,1 C 83 % 1017,9 hPa 0,0 mm 0,0 km/h (0 Bft) S 180 7,2 C 0,0 km/h (0 Bft)
09.10.2015 20:25 10,0 C 10,1 C 83 % 1017,9 hPa 0,0 mm 0,0 km/h (0 Bft) S 180 7,2 C 0,0 km/h (0 Bft)
09.10.2015 20:30 10,0 C 9,9 C 85 % 1017,8 hPa 0,0 mm 0,0 km/h (0 Bft) SW 225 7,6 C 0,0 km/h (0 Bft)
09.10.2015 20:35 10,0 C 9,9 C 85 % 1017,8 hPa 0,0 mm 0,0 km/h (0 Bft) S-SO 157 7,6 C 0,0 km/h (0 Bft)
09.10.2015 20:40 10,0 C 10,0 C 84 % 1017,8 hPa 0,0 mm 0,0 km/h (0 Bft) SO 135 7,4 C 0,0 km/h (0 Bft)
09.10.2015 20:42 10,0 C 10,0 C 84 % 1017,8 hPa 0,0 mm 0,0 km/h (0 Bft) SO 135 7,4 C 0,0 km/h (0 Bft)
09.10.2015 20:45 10,1 C 10,1 C 84 % 1017,8 hPa 0,0 mm 0,0 km/h (0 Bft) S 180 7,5 C 0,0 km/h (0 Bft)
09.10.2015 20:50 10,1 C 10,1 C 84 % 1017,8 hPa 0,0 mm 0,0 km/h (0 Bft) S-SO 157 7,5 C 0,0 km/h (0 Bft)
09.10.2015 20:55 10,1 C 10,0 C 86 % 1017,8 hPa 0,0 mm 0,0 km/h (0 Bft) SW 225 7,9 C 0,0 km/h (0 Bft)
09.10.2015 21:00 10,1 C 10,0 C 86 % 1017,8 hPa 0,0 mm 0,0 km/h (0 Bft) S-SW 202 7,9 C 0,0 km/h (0 Bft)
09.10.2015 21:05 10,0 C 9,9 C 86 % 1017,8 hPa 0,0 mm 0,0 km/h (0 Bft) S 180 7,8 C 0,0 km/h (0 Bft)
09.10.2015 21:10 9,9 C 9,8 C 86 % 1017,7 hPa 0,0 mm 0,0 km/h (0 Bft) S-SO 157 7,7 C 0,0 km/h (0 Bft)
09.10.2015 21:15 9,8 C 9,7 C 86 % 1017,7 hPa 0,0 mm 0,0 km/h (0 Bft) SO 135 7,6 C 0,0 km/h (0 Bft)
09.10.2015 21:20 9,5 C 9,4 C 86 % 1017,7 hPa 0,0 mm 0,0 km/h (0 Bft) SO 135 7,3 C 0,0 km/h (0 Bft)
09.10.2015 21:25 9,1 C 9,0 C 86 % 1017,7 hPa 0,0 mm 0,0 km/h (0 Bft) S-SO 157 6,9 C 0,0 km/h (0 Bft)
09.10.2015 21:30 9,3 C 9,1 C 86 % 1017,6 hPa 0,0 mm 0,0 km/h (0 Bft) S 180 7,1 C 0,0 km/h (0 Bft)
09.10.2015 21:35 9,5 C 9,3 C 87 % 1017,6 hPa 0,0 mm 0,0 km/h (0 Bft) S-SO 157 7,4 C 0,0 km/h (0 Bft)
09.10.2015 21:40 9,4 C 9,2 C 87 % 1017,6 hPa 0,0 mm 0,0 km/h (0 Bft) SO 135 7,3 C 0,0 km/h (0 Bft)
09.10.2015 21:45 9,4 C 9,2 C 87 % 1017,6 hPa 0,0 mm 0,0 km/h (0 Bft) S 180 7,3 C 0,0 km/h (0 Bft)
09.10.2015 21:50 9,4 C 9,3 C 87 % 1017,7 hPa 0,0 mm 0,0 km/h (0 Bft) O-SO 112 7,3 C 0,0 km/h (0 Bft)
09.10.2015 21:55 9,4 C 9,3 C 87 % 1017,7 hPa 0,0 mm 0,0 km/h (0 Bft) SO 135 7,3 C 0,0 km/h (0 Bft)
09.10.2015 22:00 9,4 C 9,3 C 87 % 1017,7 hPa 0,0 mm 0,0 km/h (0 Bft) SO 135 7,3 C 0,0 km/h (0 Bft)
09.10.2015 22:05 9,3 C 9,2 C 87 % 1017,7 hPa 0,0 mm 0,0 km/h (0 Bft) SW 225 7,2 C 0,0 km/h (0 Bft)
09.10.2015 22:10 9,3 C 9,2 C 87 % 1017,8 hPa 0,0 mm 0,0 km/h (0 Bft) SW 225 7,2 C 0,0 km/h (0 Bft)
09.10.2015 22:15 9,3 C 9,2 C 87 % 1017,8 hPa 0,0 mm 0,0 km/h (0 Bft) S-SW 202 7,2 C 0,0 km/h (0 Bft)
09.10.2015 22:20 9,2 C 9,2 C 85 % 1017,8 hPa 0,0 mm 0,0 km/h (0 Bft) S-SO 157 6,8 C 0,0 km/h (0 Bft)
09.10.2015 22:25 9,1 C 9,0 C 87 % 1017,8 hPa 0,0 mm 0,0 km/h (0 Bft) S-SO 157 7,1 C 0,0 km/h (0 Bft)
09.10.2015 22:30 9,0 C 8,9 C 87 % 1017,6 hPa 0,0 mm 0,0 km/h (0 Bft) S-SO 157 7,0 C 0,0 km/h (0 Bft)
09.10.2015 22:35 9,0 C 8,9 C 87 % 1017,6 hPa 0,0 mm 0,0 km/h (0 Bft) S-SO 157 7,0 C 0,0 km/h (0 Bft)
09.10.2015 22:40 9,0 C 8,8 C 87 % 1017,6 hPa 0,0 mm 0,0 km/h (0 Bft) S-SO 157 7,0 C 0,0 km/h (0 Bft)
09.10.2015 22:45 9,0 C 8,8 C 87 % 1017,6 hPa 0,0 mm 0,0 km/h (0 Bft) S-SO 157 7,0 C 0,0 km/h (0 Bft)
09.10.2015 22:50 9,1 C 9,0 C 85 % 1017,5 hPa 0,0 mm 0,0 km/h (0 Bft) S-SO 157 6,7 C 0,0 km/h (0 Bft)
09.10.2015 22:55 9,3 C 9,1 C 88 % 1017,5 hPa 0,0 mm 0,0 km/h (0 Bft) SO 135 7,4 C 3,4 km/h (1 Bft)
09.10.2015 23:00 9,4 C 9,2 C 88 % 1017,5 hPa 0,0 mm 0,3 km/h (0 Bft) S 180 7,5 C 0,0 km/h (0 Bft)
09.10.2015 23:05 9,3 C 9,1 C 88 % 1017,5 hPa 0,0 mm 0,3 km/h (0 Bft) O-SO 112 7,4 C 0,0 km/h (0 Bft)
09.10.2015 23:10 9,2 C 9,1 C 88 % 1017,5 hPa 0,0 mm 0,0 km/h (0 Bft) S 180 7,3 C 0,0 km/h (0 Bft)
09.10.2015 23:15 8,7 C 8,7 C 87 % 1017,5 hPa 0,0 mm 0,0 km/h (0 Bft) S-SW 202 6,7 C 0,0 km/h (0 Bft)
09.10.2015 23:20 8,4 C 8,4 C 87 % 1017,5 hPa 0,0 mm 0,0 km/h (0 Bft) S-SW 202 6,4 C 0,0 km/h (0 Bft)
09.10.2015 23:25 8,4 C 8,2 C 88 % 1017,5 hPa 0,0 mm 0,0 km/h (0 Bft) SO 135 6,5 C 0,0 km/h (0 Bft)
09.10.2015 23:30 8,4 C 8,2 C 88 % 1017,1 hPa 0,0 mm 0,0 km/h (0 Bft) SO 135 6,5 C 0,0 km/h (0 Bft)
09.10.2015 23:35 8,3 C 8,0 C 88 % 1017,1 hPa 0,0 mm 0,3 km/h (0 Bft) S 180 6,4 C 3,6 km/h (1 Bft)
09.10.2015 23:40 8,3 C 8,0 C 88 % 1017,1 hPa 0,0 mm 1,3 km/h (1 Bft) S 180 6,4 C 0,0 km/h (0 Bft)
09.10.2015 23:45 8,2 C 7,9 C 88 % 1017,1 hPa 0,0 mm 1,0 km/h (0 Bft) S-SO 157 6,3 C 0,0 km/h (0 Bft)
09.10.2015 23:50 8,0 C 7,9 C 85 % 1017,2 hPa 0,0 mm 0,0 km/h (0 Bft) S 180 5,6 C 0,0 km/h (0 Bft)
09.10.2015 23:55 8,0 C 7,8 C 89 % 1017,2 hPa 0,0 mm 0,0 km/h (0 Bft) SO 135 6,3 C 0,0 km/h (0 Bft)
_ Min-Zeit 05:20 05:20 15:30 23:45 - 23:55 - - 23:50 23:55
Minimum _ 7,5 C 7,3 C 77 % 1017,1 hPa - 0,0 km/h (0 Bft) - - 5,6 C 0,0 km/h (0 Bft)
_ Max-Zeit 14:41 13:05 07:30 00:05 23:55 14:10 - - 16:45 14:20
Maximum _ 12,7 C 16,2 C 92 % 1019,8 hPa 0,0 mm 6,5 km/h
O-SO (2 Bft)
- - 9,0 C 17,6 km/h
NO (3 Bft)
Durchschnitt _ 9,9 C 10,5 C 85 % 1018,3 hPa #0,0 mm 1,1 km/h (1 Bft) O-NO - 7,5 C 1,8 km/h (1 Bft)